Tracking 18984 objects as of 23-Feb-2018
HD Live streaming from Space Station
objects crossing your sky now

SL-8 R/B

Track SL-8 R/B now!
10-day predictions


NORAD ID: 6271
Int'l Code: 1972-087J
Perigee: 1,473.3 km
Apogee: 1,600.6 km
Inclination: 74.0 °
Period: 116.6 minutes
Semi major axis: 7907 km
RCS: 6.2723 m2 (large)
Launch date: November 1, 1972
Source: Commonwealth of Independent States (former USSR) (CIS)
Launch site: PLESETSK MISSILE AND SPACE COMPLEX (PKMTR)

Note: This is a ROCKET BODY
aabbcc
Your satellite tracking list
Your tracking list is empty




NASA's NSSDC Master Catalog

Two Line Element Set (TLE):
1  6271U 72087J   18053.77112017 -.00000014 +00000-0 +72676-5 0  9992
2  6271 074.0442 331.5420 0080470 210.9788 178.3893 12.34550932042099
Source of the keplerian elements: AFSPC